[[[{"header":{"parameterUnit":"kt","parameterCategory":2,"dx":1,"dy":1,"la1":30.253999710083008,"la2":30.299108505249023,"lo1":-89.0895004272461,"lo2":-89.04439544677734,"nx":28,"ny":28,"refTime":"2022-10-31T21:00:00:Z","depth":0,"parameterNumber":1,"parameterNumberName":"U-component_of_WINDS"},"data":[-1.5903,-1.5963,-1.5974,-1.6047,-1.607,-1.6121,-1.6143,-1.6172,-1.6198,-1.626,-1.6298,-1.6315,-1.6344,-1.6391,-1.6432,-1.6438,-1.6454,-1.6467,-1.6472,-1.6405,-1.6396,-1.6388,-1.6375,-1.6471,-1.6471,-1.6539,-1.654,-1.6541,-1.5853,-1.5876,-1.5918,-1.5967,-1.6003,-1.5997,-1.6035,-1.6065,-1.6111,-1.6143,-1.6181,-1.6236,-1.6281,-1.6306,-1.6351,-1.6378,-1.6377,-1.6389,-1.6387,-1.6391,-1.632,-1.6306,-1.6389,-1.6389,-1.6389,-1.6389,-1.6389,-1.6389,-1.5765,-1.58,-1.5836,-1.5882,-1.5909,-1.5941,-1.5976,-1.5997,-1.6037,-1.6086,-1.6091,-1.6143,-1.6177,-1.6236,-1.6258,-1.6298,-1.6286,-1.6302,-1.6306,-1.631,-1.6312,-1.6211,-1.6306,-1.6306,-1.6306,-1.6305,-1.6305,0,-1.5703,-1.5711,-1.5752,-1.5796,-1.583,-1.5865,-1.5899,-1.5921,-1.5939,-1.5972,-1.602,-1.605,-1.6108,-1.6153,-1.6198,-1.6217,-1.6214,-1.6215,-1.6226,-1.6223,-1.6216,-1.622,-1.6103,-1.6212,-1.6211,-1.621,-1.621,-1.621,-1.5614,-1.5654,-1.5697,-1.5724,-1.5746,-1.5789,-1.5817,-1.583,-1.586,-1.5903,-1.5933,-1.598,-1.6017,-1.6092,-1.6114,-1.6157,-1.6155,-1.6196,-1.6162,-1.6158,-1.6155,-1.6152,-1.6156,-1.6201,-1.6202,-1.6203,-1.6204,0,-1.5563,-1.5581,-1.5646,-1.5685,-1.5695,-1.5736,-1.5769,-1.5804,-1.5819,-1.587,-1.5883,-1.5906,-1.5953,-1.5969,-1.6025,-1.6032,-1.6098,-1.6096,-1.6086,-1.6086,-1.6124,-1.612,-1.6243,-1.6259,-1.6161,-1.6162,-1.6162,0,-1.5494,-1.5546,-1.5569,-1.5606,-1.5664,-1.5675,-1.5732,-1.5751,-1.5781,-1.5821,-1.582,-1.5857,-1.5871,-1.5911,-1.5921,-1.5978,-1.5989,-1.5997,-1.5998,-1.5996,-1.5995,-1.6011,-1.6006,-1.6002,-1.6001,-1.6001,-1.6,0,-1.5411,-1.5484,-1.5544,-1.5564,-1.5609,-1.5637,-1.5657,-1.5691,-1.5718,-1.5756,-1.5773,-1.5817,-1.584,-1.5873,-1.5885,-1.5862,-1.5956,-1.5926,-1.5964,-1.5964,-1.5983,-1.5982,-1.6088,-1.5999,-1.5999,-1.5999,-1.5999,0,-1.5357,-1.5396,-1.5481,-1.5518,-1.5537,-1.5576,-1.562,-1.5657,-1.5692,-1.5701,-1.5731,-1.5732,-1.5783,-1.5752,-1.5824,-1.5789,-1.5812,-1.5825,-1.5828,-1.5833,-1.5797,-1.5854,-1.5954,-1.5965,-1.5838,-1.5837,-1.5836,0,-1.5257,-1.5347,-1.5358,-1.5438,-1.5481,-1.5477,-1.5521,-1.5552,-1.5568,-1.5606,-1.5623,-1.5667,-1.5648,-1.5663,-1.5697,-1.5716,-1.576,-1.571,-1.5765,-1.5767,-1.5755,-1.5848,-1.5858,-1.5931,-1.5819,-1.5821,-1.5822,0,-1.5182,-1.5237,-1.525,-1.5273,-1.5316,-1.5352,-1.5403,-1.5449,-1.5475,-1.551,-1.5552,-1.5615,-1.5602,-1.5628,-1.5633,-1.5667,-1.573,-1.5649,-1.565,-1.5663,-1.5812,-1.5821,-1.5834,-1.5726,-1.5728,-1.573,-1.5808,0,-1.5096,-1.5143,-1.5181,-1.523,-1.5261,-1.5312,-1.5328,-1.5358,-1.536,-1.5375,-1.5438,-1.5467,-1.5514,-1.5532,-1.5534,-1.5607,-1.5597,-1.5583,-1.5553,-1.5614,-1.564,-1.5651,-1.5513,-1.5512,-1.5511,-1.5511,0,0,-1.4996,-1.5063,-1.5073,-1.5122,-1.5149,-1.5143,-1.5196,-1.5221,-1.5271,-1.5289,-1.5273,-1.5365,-1.539,-1.5464,-1.5484,-1.5503,-1.5518,-1.5496,-1.5585,-1.5593,-1.5601,-1.5628,-1.5639,-1.5509,-1.5509,-1.5509,-1.5509,0,-1.4968,-1.4993,-1.5046,-1.5072,-1.5111,-1.5125,-1.5137,-1.5175,-1.5187,-1.5248,-1.5242,-1.5282,-1.5355,-1.5382,-1.5405,-1.5487,-1.548,-1.55,-1.5539,-1.5578,-1.5587,-1.5595,-1.5624,-1.5634,-1.5507,-1.5507,-1.5507,0,-1.4896,-1.4924,-1.4951,-1.5011,-1.5036,-1.5081,-1.5054,-1.5103,-1.5136,-1.5127,-1.5188,-1.5206,-1.5243,-1.5311,-1.5342,-1.5328,-1.5445,-1.5411,-1.5416,-1.542,-1.5457,-1.5468,-1.5478,-1.535,-1.535,-1.5349,0,0,-1.4869,-1.4913,-1.4946,-1.5006,-1.5022,-1.5043,-1.5068,-1.5072,-1.5106,-1.5119,-1.5143,-1.5175,-1.5218,-1.5246,-1.5287,-1.5359,-1.5368,-1.5391,-1.5399,-1.5405,-1.5412,-1.5451,-1.5462,-1.5347,-1.5347,-1.5347,0,0,-1.4856,-1.4898,-1.4893,-1.4964,-1.4997,-1.5033,-1.5069,-1.5064,-1.5103,-1.5099,-1.5108,-1.5117,-1.5181,-1.5199,-1.5166,-1.5277,-1.5247,-1.5255,-1.5262,-1.5272,-1.5279,-1.5273,-1.5142,0,0,0,0,0,-1.4836,-1.4892,-1.4888,-1.4903,-1.4978,-1.5035,-1.5045,-1.5054,-1.5033,-1.5061,-1.508,-1.5071,-1.5183,-1.5154,-1.5168,-1.5205,-1.5317,-1.5322,-1.5327,-1.5353,-1.5363,-1.5372,0,0,0,0,0,0,-1.4842,-1.4859,-1.4887,-1.4926,-1.4942,-1.5033,-1.5,-1.5004,-1.503,-1.5028,-1.5067,-1.5072,-1.508,-1.5148,-1.516,-1.5195,-1.5138,-1.5319,-1.5323,-1.5327,-1.5357,-1.5365,-1.5372,0,0,0,0,0,-1.4846,-1.486,-1.4978,-1.4925,-1.494,-1.4965,-1.4998,-1.5001,-1.5021,-1.5051,-1.5055,-1.5026,-1.5081,-1.5092,-1.5155,-1.5189,-1.513,-1.5134,-1.5322,-1.5325,-1.5329,-1.5361,0,0,0,0,0,0,-1.485,-1.4863,-1.4982,-1.4986,-1.4904,-1.496,-1.4969,-1.4998,-1.5043,-1.5048,-1.5009,-1.5007,-1.5083,-1.5091,-1.5099,-1.5186,-1.5123,-1.5128,-1.513,-1.5325,-1.5327,-1.533,0,0,0,0,0,0,-1.4856,-1.4868,-1.4984,-1.4957,-1.4959,-1.4956,-1.4964,-1.5018,-1.5043,-1.4999,-1.4998,-1.5008,-1.5069,-1.509,-1.5097,-1.5182,-1.5117,-1.5122,-1.5125,-1.5127,-1.5327,-1.5329,0,0,0,0,0,0,-1.4861,-1.4871,-1.4956,-1.4958,-1.4959,-1.5014,-1.5004,-1.508,-1.5021,-1.4997,-1.5016,-1.5013,-1.5069,-1.5076,-1.5095,-1.5177,-1.5181,-1.5118,-1.5121,-1.5123,-1.5124,0,0,0,0,0,0,0,-1.4865,-1.4796,-1.4953,-1.4958,-1.4959,-1.5031,-1.5032,-1.5034,-1.502,-1.5018,-1.5016,-1.5014,-1.5092,-1.5097,-1.5102,-1.5174,0,0,-1.5117,-1.5119,0,0,0,0,0,0,0,0,-1.4792,-1.4795,-1.4953,-1.4954,-1.4955,-1.5031,-1.5032,-1.5033,-1.502,-1.5018,-1.5017,-1.5015,-1.5093,-1.5097,-1.5101,0,0,0,0,0,0,0,0,0,0,0,0,0,0,0,-1.4953,-1.4954,0,-1.5031,-1.5032,-1.5033,-1.502,-1.5018,-1.5017,-1.5016,-1.5094,-1.5098,-1.5101,0,0,0,0,0,0,0,0,0,0,0,0,0,0,0,0,0,0,0,0,0,0,0,0,0,0,0,0,0,0,0,0,0,0,0,0,0,0,0,0,0,0,0,0,0,0,0,0,0,0,0,0,0,0,0,0,0,0,0,0,0,0,0,0,0,0,0,0,0]}],[{"header":{"parameterUnit":"kt","parameterCategory":2,"dx":1,"dy":1,"la1":30.253999710083008,"la2":30.299108505249023,"lo1":-89.0895004272461,"lo2":-89.04439544677734,"nx":28,"ny":28,"refTime":"2022-10-31T21:00:00:Z","depth":0,"parameterNumber":2,"parameterNumberName":"V-component_of_WINDS"},"data":[-3.9399,-3.9445,-3.9428,-3.9472,-3.9464,-3.9491,-3.9496,-3.9499,-3.9498,-3.9529,-3.9544,-3.9532,-3.9525,-3.9539,-3.9554,-3.9549,-3.9557,-3.9585,-3.9574,-3.9461,-3.9444,-3.9429,-3.9416,-3.9587,-3.9587,-3.9693,-3.9694,-3.9695,-3.9319,-3.9311,-3.933,-3.9336,-3.9351,-3.9313,-3.9315,-3.9331,-3.9357,-3.9356,-3.9369,-3.9395,-3.9414,-3.9396,-3.9411,-3.9433,-3.9416,-3.9438,-3.9436,-3.9436,-3.9315,-3.9302,-3.9451,-3.9451,-3.9451,-3.9451,-3.9451,-3.9451,-3.9167,-3.9195,-3.9189,-3.9208,-3.9206,-3.9211,-3.9234,-3.9218,-3.9236,-3.9249,-3.9225,-3.9254,-3.925,-3.926,-3.9259,-3.9281,-3.9254,-3.9273,-3.9277,-3.9283,-3.9291,-3.9142,-3.9283,-3.9282,-3.9282,-3.9281,-3.9281,0,-3.9051,-3.9035,-3.9051,-3.9062,-3.9075,-3.9082,-3.9086,-3.91,-3.906,-3.9076,-3.9099,-3.9109,-3.9129,-3.9149,-3.9159,-3.9154,-3.9117,-3.9111,-3.9124,-3.9136,-3.9146,-3.9142,-3.8946,-3.9107,-3.9106,-3.9104,-3.9104,-3.9103,-3.8897,-3.8932,-3.8916,-3.893,-3.8927,-3.895,-3.896,-3.8922,-3.8934,-3.8933,-3.896,-3.8979,-3.8992,-3.9031,-3.9012,-3.9028,-3.901,-3.9073,-3.9012,-3.9022,-3.9011,-3.901,-3.9013,-3.9086,-3.9089,-3.909,-3.9092,0,-3.8813,-3.8784,-3.8831,-3.8812,-3.8809,-3.8847,-3.8831,-3.8857,-3.8838,-3.8872,-3.8878,-3.8848,-3.8871,-3.8842,-3.8862,-3.8846,-3.891,-3.8892,-3.8911,-3.8906,-3.896,-3.8956,-3.914,-3.9163,-3.8985,-3.8987,-3.8988,0,-3.8671,-3.8717,-3.8671,-3.87,-3.8751,-3.871,-3.8762,-3.875,-3.8745,-3.8771,-3.8724,-3.875,-3.8707,-3.8729,-3.8705,-3.8752,-3.8755,-3.8746,-3.8739,-3.8751,-3.8752,-3.8757,-3.875,-3.8722,-3.8721,-3.872,-3.872,0,-3.8541,-3.8571,-3.8618,-3.862,-3.8605,-3.8628,-3.8622,-3.8616,-3.8626,-3.8635,-3.8641,-3.8654,-3.8662,-3.8673,-3.8642,-3.8602,-3.8698,-3.8636,-3.8689,-3.869,-3.8712,-3.8711,-3.8882,-3.8718,-3.8718,-3.8718,-3.8718,0,-3.8422,-3.8431,-3.8503,-3.8489,-3.8498,-3.8529,-3.8539,-3.8558,-3.8555,-3.8542,-3.8548,-3.8513,-3.8551,-3.8491,-3.8543,-3.8499,-3.8509,-3.8503,-3.8506,-3.8508,-3.8443,-3.8544,-3.8708,-3.8725,-3.851,-3.8508,-3.8507,0,-3.8282,-3.8347,-3.8312,-3.8382,-3.8408,-3.8352,-3.8386,-3.8384,-3.8369,-3.8389,-3.8372,-3.8395,-3.8345,-3.8348,-3.8377,-3.8361,-3.8419,-3.8352,-3.8383,-3.8385,-3.8386,-3.8537,-3.8569,-3.8675,-3.8484,-3.8486,-3.8488,0,-3.817,-3.815,-3.8165,-3.8165,-3.8156,-3.8178,-3.8217,-3.823,-3.8245,-3.8249,-3.828,-3.8312,-3.8275,-3.8281,-3.8253,-3.8286,-3.8379,-3.8242,-3.8241,-3.8268,-3.847,-3.85,-3.8518,-3.8353,-3.8356,-3.8358,-3.847,0,-3.7997,-3.8026,-3.8064,-3.8067,-3.8079,-3.812,-3.8087,-3.8104,-3.8076,-3.8058,-3.8105,-3.8096,-3.811,-3.8122,-3.8095,-3.8178,-3.816,-3.812,-3.806,-3.816,-3.8196,-3.8211,-3.8009,-3.8007,-3.8006,-3.8004,0,0,-3.7871,-3.7911,-3.7871,-3.7907,-3.7914,-3.7855,-3.7903,-3.7903,-3.7905,-3.7912,-3.7878,-3.7922,-3.7916,-3.7976,-3.8004,-3.801,-3.8022,-3.7988,-3.8113,-3.8125,-3.8136,-3.8175,-3.8191,-3.8001,-3.8001,-3.8,-3.8,0,-3.7801,-3.7795,-3.7842,-3.784,-3.7836,-3.7815,-3.7827,-3.7812,-3.7803,-3.7848,-3.7799,-3.7823,-3.7859,-3.7859,-3.7864,-3.798,-3.7942,-3.7987,-3.806,-3.8097,-3.8112,-3.8124,-3.8166,-3.8181,-3.7996,-3.7996,-3.7996,0,-3.7685,-3.7674,-3.7693,-3.7706,-3.7703,-3.7731,-3.7659,-3.7692,-3.7712,-3.7647,-3.7692,-3.7683,-3.768,-3.7741,-3.7766,-3.7737,-3.7872,-3.7823,-3.7833,-3.7835,-3.7869,-3.7887,-3.7902,-3.7699,-3.7698,-3.7697,0,0,-3.7629,-3.7655,-3.7631,-3.7688,-3.769,-3.7659,-3.767,-3.7643,-3.7642,-3.7642,-3.7629,-3.7629,-3.765,-3.7664,-3.7681,-3.7752,-3.7749,-3.7788,-3.7802,-3.7814,-3.7822,-3.786,-3.7877,-3.7693,-3.7693,-3.7693,0,0,-3.7602,-3.7576,-3.7548,-3.761,-3.761,-3.7591,-3.7628,-3.7592,-3.7604,-3.7596,-3.7552,-3.7551,-3.7606,-3.7599,-3.7557,-3.766,-3.7601,-3.7611,-3.7662,-3.768,-3.7693,-3.7694,-3.7484,0,0,0,0,0,-3.7513,-3.7579,-3.7554,-3.7559,-3.7576,-3.7605,-3.7607,-3.7572,-3.7531,-3.7561,-3.7544,-3.7503,-3.7568,-3.753,-3.7536,-3.7583,-3.7649,-3.7657,-3.7665,-3.7748,-3.7766,-3.7782,0,0,0,0,0,0,-3.7515,-3.7522,-3.7552,-3.7536,-3.7539,-3.7602,-3.7525,-3.7518,-3.7527,-3.7518,-3.7507,-3.7502,-3.7474,-3.7524,-3.753,-3.7576,-3.7481,-3.7652,-3.7659,-3.7665,-3.7754,-3.7769,-3.7782,0,0,0,0,0,-3.7516,-3.7522,-3.7557,-3.7534,-3.7537,-3.7506,-3.7523,-3.7515,-3.7522,-3.7497,-3.749,-3.7495,-3.7476,-3.7479,-3.7527,-3.7574,-3.7477,-3.7479,-3.7657,-3.7662,-3.7667,-3.7761,0,0,0,0,0,0,-3.7517,-3.7516,-3.7557,-3.7556,-3.7507,-3.7502,-3.75,-3.7514,-3.7499,-3.7494,-3.7482,-3.7475,-3.7478,-3.748,-3.7483,-3.7575,-3.7473,-3.7476,-3.7477,-3.7661,-3.7665,-3.7668,0,0,0,0,0,0,-3.7512,-3.7516,-3.7557,-3.7523,-3.7519,-3.7498,-3.7497,-3.7533,-3.75,-3.7485,-3.7479,-3.7479,-3.7475,-3.7481,-3.7483,-3.7541,-3.747,-3.7473,-3.7474,-3.7475,-3.7664,-3.7667,0,0,0,0,0,0,-3.7513,-3.7516,-3.7523,-3.752,-3.7516,-3.7508,-3.753,-3.7549,-3.7471,-3.7486,-3.7463,-3.7459,-3.7477,-3.7478,-3.7484,-3.7541,-3.7541,-3.747,-3.7472,-3.7473,-3.7474,0,0,0,0,0,0,0,-3.7514,-3.7503,-3.7559,-3.7517,-3.7513,-3.7552,-3.7552,-3.7552,-3.747,-3.7467,-3.7464,-3.7461,-3.7456,-3.7459,-3.7462,-3.7542,0,0,-3.747,-3.7471,0,0,0,0,0,0,0,0,-3.7501,-3.7503,-3.7559,-3.7559,-3.7559,-3.7552,-3.7552,-3.7552,-3.7469,-3.7467,-3.7464,-3.7462,-3.7457,-3.7459,-3.7461,0,0,0,0,0,0,0,0,0,0,0,0,0,0,0,-3.7559,-3.7559,0,-3.7552,-3.7552,-3.7552,-3.7469,-3.7467,-3.7465,-3.7463,-3.7458,-3.7459,-3.7461,0,0,0,0,0,0,0,0,0,0,0,0,0,0,0,0,0,0,0,0,0,0,0,0,0,0,0,0,0,0,0,0,0,0,0,0,0,0,0,0,0,0,0,0,0,0,0,0,0,0,0,0,0,0,0,0,0,0,0,0,0,0,0,0,0,0,0,0,0]}]]]